TimeEST,TemperatureF,Dew PointF,Humidity,Sea Level PressureIn,VisibilityMPH,Wind Direction,Wind SpeedMPH,Gust SpeedMPH,PrecipitationIn,Events,Conditions,WindDirDegrees,DateUTC
12:42 AM,39.2,37.4,93,30.29,10.0,NNE,15.0,23.0,N/A,Rain,Light Rain Showers,20,2012-12-13 05:42:00
12:55 AM,38.8,37.4,95,30.30,10.0,North,10.4,-,0.00,Rain,Light Rain Showers,360,2012-12-13 05:55:00
1:18 AM,39.2,37.4,93,30.30,10.0,North,12.7,20.7,N/A,Rain,Rain Showers,10,2012-12-13 06:18:00
1:55 AM,38.5,37.2,95,30.30,10.0,North,12.7,23.0,0.04,Rain,Light Rain,10,2012-12-13 06:55:00
2:55 AM,38.3,36.9,95,30.31,10.0,North,13.8,20.7,N/A,Rain,Light Rain,10,2012-12-13 07:55:00
2:57 AM,39.2,37.4,93,30.31,10.0,NNE,15.0,20.7,N/A,Rain,Light Rain,20,2012-12-13 07:57:00
4:09 AM,37.4,37.4,100,30.27,10.0,North,-9999.0,-,N/A,,Mostly Cloudy,0,2012-12-13 09:09:00
5:17 AM,37.4,35.6,93,30.29,10.0,NNE,16.1,25.3,N/A,,Mostly Cloudy,20,2012-12-13 10:17:00
6:55 AM,38.5,36.1,91,30.35,10.0,NNW,10.4,-,N/A,,Mostly Cloudy,340,2012-12-13 11:55:00
7:07 AM,39.2,35.6,87,30.36,10.0,North,10.4,-,N/A,,Mostly Cloudy,350,2012-12-13 12:07:00
7:55 AM,38.8,35.2,87,30.36,10.0,North,11.5,25.3,N/A,,Overcast,360,2012-12-13 12:55:00
8:37 AM,39.2,33.8,81,30.38,10.0,North,11.5,23.0,N/A,,Overcast,10,2012-12-13 13:37:00
8:55 AM,40.5,34.2,78,30.38,10.0,North,15.0,25.3,N/A,,Overcast,10,2012-12-13 13:55:00
9:07 AM,41.0,33.8,76,30.38,10.0,North,12.7,23.0,N/A,,Overcast,10,2012-12-13 14:07:00
9:32 AM,41.0,33.8,76,30.39,10.0,North,15.0,20.7,N/A,,Overcast,360,2012-12-13 14:32:00
9:55 AM,42.1,34.0,73,30.39,10.0,North,13.8,-,N/A,,Overcast,10,2012-12-13 14:55:00
10:02 AM,42.8,33.8,70,30.39,10.0,North,15.0,19.6,N/A,,Overcast,360,2012-12-13 15:02:00
10:55 AM,45.0,34.0,65,30.40,10.0,North,12.7,-,N/A,,Mostly Cloudy,360,2012-12-13 15:55:00
11:55 AM,47.7,35.6,63,30.38,10.0,NNE,13.8,20.7,N/A,,Mostly Cloudy,30,2012-12-13 16:55:00
12:55 PM,48.9,36.9,63,30.36,10.0,NE,12.7,-,N/A,,Mostly Cloudy,40,2012-12-13 17:55:00
1:55 PM,51.8,37.2,58,30.34,10.0,North,13.8,17.3,N/A,,Clear,360,2012-12-13 18:55:00
2:55 PM,52.5,37.6,57,30.33,10.0,North,8.1,-,N/A,,Clear,350,2012-12-13 19:55:00
3:55 PM,52.0,37.2,57,30.32,10.0,North,11.5,18.4,N/A,,Clear,360,2012-12-13 20:55:00
4:55 PM,47.8,36.5,65,30.34,10.0,North,5.8,-,N/A,,Clear,350,2012-12-13 21:55:00
7:55 PM,36.1,34.9,95,30.38,10.0,NNW,4.6,-,N/A,,Clear,330,2012-12-14 00:55:00
8:55 PM,35.4,34.7,97,30.38,10.0,NNW,3.5,-,N/A,,Clear,340,2012-12-14 01:55:00
9:55 PM,33.8,33.8,100,30.38,6.0,North,3.5,-,N/A,,Clear,350,2012-12-14 02:55:00
10:55 PM,35.6,33.8,93,30.37,10.0,North,4.6,-,N/A,,Clear,10,2012-12-14 03:55:00
11:55 PM,32.4,31.8,98,30.38,10.0,NNW,3.5,-,N/A,,Clear,340,2012-12-14 04:55:00